Toledo Metcalf, OH

2:14 AM EST on December 17, 2017 (GMT -0500)
Metcalf

Weather History for KTDZ - January, 2014

Change the Weather History Date:

Wednesday, January 1, 2014

  Actual Average (KTOL) Record (KTOL)
Temperature  
Mean Temperature 18 °F -  
Max Temperature 19 °F 32 °F 66 °F (1876)
Min Temperature 17 °F 18 °F -15 °F (1879)
Degree Days  
Heating Degree Days 47    
Moisture  
Dew Point 14 °F    
Average Humidity 83    
Maximum Humidity 86    
Minimum Humidity 79    
Precipitation  
Precipitation 0.17 in - - ()
Sea Level Pressure  
Sea Level Pressure 30.30 in    
Wind  
Wind Speed 5 mph (NE)    
Max Wind Speed 14 mph    
Max Gust Speed 23 mph    
Visibility 2 miles    
Events Snow    
Averages and records for this station are not official NWS values.
T = Trace of Precipitation, MM = Missing Value Source: NWS Daily Summary

Daily Weather History Graph

Daily Weather History Graph

Search for Another Location

Airport or City:

Trip Planner

Search our weather history database for the weather conditions in past years. The results will help you decide how hot, cold, wet, or windy it might be!

Date:

Astronomy

Jan. 01, 2014 Rise Set
Actual Time 8:00 AM EST 5:14 PM EST
Civil Twilight 7:29 AM EST 5:46 PM EST
Nautical Twilight 6:54 AM EST 6:20 PM EST
Astronomical Twilight 6:20 AM EST 6:54 PM EST
Moon 7:49 AM EST (1/1) 5:59 PM EST (1/1)
Length of Visible Light 10h 16m
Length of Day
9h 14m
New Moon, 0% of the Moon is Illuminated
Jan 1
New Moon
Jan 7
First Quarter
Jan 15
Full
Jan 24
Last Quarter
Jan 30
New

Hourly Weather History & Observations

Time (EST) Temp. Windchill Dew Point Humidity Pressure Visibility Wind Dir Wind Speed Gust Speed Precip Events Conditions
12:50 AM 17.6 °F - 12.2 °F 79% 30.32 in 1.8 mi Calm Calm - 0.00 in Snow Light Snow
12:53 AM 18.0 °F - 12.9 °F 81% 30.36 in 1.8 mi Calm Calm - 0.00 in Snow Light Snow
1:43 AM 17.6 °F - 12.2 °F 79% 30.32 in 2.0 mi Calm Calm - 0.01 in Snow Light Snow
1:53 AM 18.0 °F - 12.9 °F 81% 30.35 in 2.0 mi Calm Calm - 0.01 in Snow Light Snow
2:16 AM 17.6 °F - 14.0 °F 86% 30.31 in 1.8 mi Calm Calm - 0.00 in Snow Light Snow
2:43 AM 17.6 °F 12.3 °F 14.0 °F 86% 30.32 in 2.0 mi East 3.5 mph - 0.01 in Snow Light Snow
2:53 AM 18.0 °F - 14.0 °F 84% 30.35 in 1.8 mi Calm Calm - 0.01 in Snow Light Snow
3:08 AM 17.6 °F - 14.0 °F 86% 30.32 in 2.0 mi Calm Calm - 0.00 in Snow Light Snow
3:35 AM 17.6 °F - 14.0 °F 86% 30.31 in 1.8 mi Calm Calm - 0.01 in Snow Light Snow
3:44 AM 17.6 °F - 14.0 °F 86% 30.31 in 1.5 mi Calm Calm - 0.01 in Snow Light Snow
3:53 AM 18.0 °F - 14.0 °F 84% 30.35 in 1.5 mi Calm Calm - 0.01 in Snow Light Snow
4:53 AM 18.0 °F - 14.0 °F 84% 30.34 in 1.2 mi Calm Calm - 0.02 in Snow Light Snow
5:53 AM 18.0 °F - 14.0 °F 84% 30.34 in 1.2 mi Calm Calm - 0.01 in Snow Light Snow
6:53 AM 18.0 °F - 14.0 °F 84% 30.35 in 1.2 mi Calm Calm - 0.01 in Snow Light Snow
7:27 AM 17.6 °F - 14.0 °F 86% 30.31 in 1.0 mi Calm Calm - 0.01 in Snow Light Snow
7:49 AM 17.6 °F - 14.0 °F 86% 30.32 in 1.5 mi Calm Calm - 0.02 in Snow Light Snow
7:53 AM 18.0 °F 12.7 °F 14.0 °F 84% 30.35 in 1.5 mi NNE 3.5 mph - 0.02 in Snow Light Snow
8:20 AM 17.6 °F 10.7 °F 14.0 °F 86% 30.32 in 1.0 mi NE 4.6 mph - 0.01 in Snow Light Snow
8:38 AM 19.4 °F 12.8 °F 15.8 °F 86% 30.32 in 1.2 mi NE 4.6 mph - 0.01 in Snow Light Snow
8:48 AM 19.4 °F 12.8 °F 15.8 °F 86% 30.32 in 1.0 mi NE 4.6 mph - 0.01 in Snow Light Snow
8:53 AM 19.0 °F 12.3 °F 15.1 °F 85% 30.36 in 1.2 mi NE 4.6 mph - 0.01 in Snow Light Snow
9:23 AM 19.4 °F 9.5 °F 15.8 °F 86% 30.33 in 1.2 mi NE 8.1 mph - 0.00 in Snow Light Snow
9:30 AM 19.4 °F 7.2 °F 15.8 °F 86% 30.33 in 0.8 mi NE 11.5 mph - 0.00 in Snow Light Snow
9:43 AM 19.4 °F 7.9 °F 14.0 °F 80% 30.33 in 1.0 mi NE 10.4 mph - 0.01 in Snow Light Snow
9:51 AM 19.4 °F 9.5 °F 14.0 °F 80% 30.34 in 1.8 mi ENE 8.1 mph - 0.01 in Snow Light Snow
9:53 AM 19.0 °F 7.5 °F 14.0 °F 81% 30.37 in 1.8 mi NE 10.4 mph - 0.01 in Snow Light Snow
10:00 AM 19.4 °F 7.9 °F 14.0 °F 80% 30.34 in 2.5 mi NE 10.4 mph - 0.00 in Snow Light Snow
10:14 AM 19.4 °F 7.2 °F 14.0 °F 80% 30.33 in 1.2 mi ENE 11.5 mph - 0.00 in Snow Light Snow
10:18 AM 19.4 °F 9.5 °F 14.0 °F 80% 30.33 in 1.0 mi NE 8.1 mph - 0.00 in Snow Light Snow
10:26 AM 19.4 °F 9.5 °F 14.0 °F 80% 30.34 in 1.5 mi NE 8.1 mph - 0.00 in Snow Light Snow
10:36 AM 19.4 °F 9.5 °F 14.0 °F 80% 30.34 in 3.0 mi NE 8.1 mph - 0.00 in Snow Light Snow
10:43 AM 19.4 °F 7.2 °F 14.0 °F 80% 30.34 in 5.0 mi NE 11.5 mph - 0.00 in Snow Light Snow
10:53 AM 19.0 °F 8.2 °F 14.0 °F 81% 30.37 in 5.0 mi NE 9.2 mph - 0.00 in Snow Light Snow
11:12 AM 17.6 °F 5.0 °F 12.2 °F 79% 30.33 in 2.5 mi NE 11.5 mph - 0.00 in Snow Light Snow
11:20 AM 17.6 °F 4.3 °F 12.2 °F 79% 30.33 in 1.5 mi NE 12.7 mph 19.6 mph 0.00 in Snow Light Snow
11:41 AM 17.6 °F 4.3 °F 12.2 °F 79% 30.32 in 2.5 mi NE 12.7 mph - 0.00 in Snow Light Snow
11:50 AM 17.6 °F 5.0 °F 12.2 °F 79% 30.32 in 4.0 mi NE 11.5 mph 18.4 mph 0.00 in Snow Light Snow
11:53 AM 18.0 °F 5.4 °F 12.9 °F 81% 30.35 in 5.0 mi NE 11.5 mph 18.4 mph 0.00 in Snow Light Snow
12:53 PM 17.1 °F 3.6 °F 12.0 °F 81% 30.32 in 8.0 mi NE 12.7 mph 21.9 mph 0.00 in   Overcast
1:53 PM 17.1 °F 4.3 °F 12.0 °F 81% 30.30 in 9.0 mi NE 11.5 mph - N/A   Overcast
2:09 PM 17.6 °F 3.7 °F 12.2 °F 79% 30.26 in 8.0 mi NE 13.8 mph 23.0 mph N/A   Overcast
2:53 PM 17.1 °F 3.0 °F 12.0 °F 81% 30.28 in 5.0 mi NE 13.8 mph 19.6 mph N/A   Haze
3:53 PM 17.1 °F 6.6 °F 12.0 °F 81% 30.28 in 7.0 mi NNE 8.1 mph 18.4 mph N/A   Overcast
4:53 PM 17.1 °F 4.3 °F 12.0 °F 81% 30.28 in 9.0 mi NE 11.5 mph - N/A   Overcast
5:46 PM 17.6 °F 4.3 °F 12.2 °F 79% 30.24 in 2.5 mi NE 12.7 mph 19.6 mph 0.00 in Snow Light Snow
5:53 PM 18.0 °F 5.4 °F 12.9 °F 81% 30.28 in 1.8 mi NE 11.5 mph 19.6 mph 0.00 in Snow Light Snow
6:53 PM 18.0 °F 6.9 °F 14.0 °F 84% 30.27 in 1.2 mi NE 9.2 mph - 0.02 in Snow Light Snow
7:53 PM 19.0 °F 7.5 °F 14.0 °F 81% 30.26 in 2.0 mi NE 10.4 mph 21.9 mph 0.01 in Snow Light Snow
8:01 PM 19.4 °F 7.2 °F 14.0 °F 80% 30.22 in 1.5 mi NE 11.5 mph 18.4 mph 0.00 in Snow Light Snow
8:14 PM 19.4 °F 8.6 °F 14.0 °F 80% 30.22 in 1.0 mi NE 9.2 mph 19.6 mph 0.00 in Snow Light Snow
8:21 PM 19.4 °F 7.2 °F 14.0 °F 80% 30.22 in 1.2 mi NE 11.5 mph - 0.01 in Snow Light Snow
8:53 PM 19.0 °F 7.5 °F 15.1 °F 85% 30.24 in 1.5 mi NE 10.4 mph - 0.01 in Snow Light Snow
9:23 PM 19.4 °F 8.6 °F 15.8 °F 86% 30.20 in 1.5 mi NE 9.2 mph 20.7 mph 0.01 in Snow Light Snow
9:53 PM 19.9 °F 6.7 °F 15.1 °F 81% 30.21 in 1.8 mi NE 13.8 mph 19.6 mph 0.01 in Snow Light Snow
10:15 PM 19.4 °F 7.2 °F 15.8 °F 86% 30.18 in 2.0 mi NE 11.5 mph 20.7 mph 0.00 in Snow Light Snow
10:28 PM 19.4 °F 7.2 °F 15.8 °F 86% 30.17 in 2.0 mi NE 11.5 mph 20.7 mph 0.00 in Snow Light Snow
10:49 PM 19.4 °F 7.9 °F 15.8 °F 86% 30.17 in 2.0 mi NE 10.4 mph 21.9 mph 0.00 in Snow Light Snow
10:53 PM 19.9 °F 7.3 °F 16.0 °F 85% 30.20 in 2.0 mi NE 12.7 mph 21.9 mph 0.00 in Snow Light Snow
11:12 PM 19.4 °F 6.6 °F 15.8 °F 86% 30.16 in 1.8 mi NE 12.7 mph 21.9 mph 0.01 in Snow Light Snow
11:53 PM 19.9 °F 7.9 °F 16.0 °F 85% 30.18 in 1.5 mi NE 11.5 mph - 0.01 in Snow Light Snow